This is the latest recevied weather packets stored in our database for station/object SP5EB-3. If no packets are shown the sender has not sent any weather packets the latest 10 day(s).
| Time | Temp. | Humidity | Pressure | Rain* | Wind** | Luminosity | Snow |
|---|---|---|---|---|---|---|---|
| 1788066692 | 15° C | 1% | 1013.8 hPa | - | - | - | - |
| 1788066358 | 14.44° C | 19% | 1013.7 hPa | - | - | - | - |
| 1788066062 | 14.44° C | 63% | 1013.7 hPa | - | - | - | - |
| 1788065808 | 14.44° C | 99% | 1013.6 hPa | - | - | - | - |
| 1788065741 | 14.44° C | 99% | 1013.6 hPa | - | - | - | - |
| 1788065598 | 13.89° C | 99% | 1013.6 hPa | - | - | - | - |
| 1788065551 | 13.89° C | 99% | 1013.7 hPa | - | - | - | - |
| 1788065545 | 13.89° C | 99% | 1013.7 hPa | - | - | - | - |
| 1788065504 | 13.89° C | 99% | 1013.6 hPa | - | - | - | - |
| 1788065342 | 13.89° C | 99% | 1013.6 hPa | - | - | - | - |
| 1788065305 | 13.89° C | 1% | 1013.5 hPa | - | - | - | - |
| 1788065263 | 13.89° C | 1% | 1013.5 hPa | - | - | - | - |
| 1788065208 | 13.89° C | 1% | 1013.4 hPa | - | - | - | - |
| 1788065045 | 13.89° C | 1% | 1013.6 hPa | - | - | - | - |
| 1788064997 | 13.89° C | 1% | 1013.5 hPa | - | - | - | - |
| 1788064940 | 13.89° C | 1% | 1013.6 hPa | - | - | - | - |
| 1788064921 | 13.89° C | 23% | 1013.6 hPa | - | - | - | - |
| 1788064903 | 13.89° C | 72% | 1013.6 hPa | - | - | - | - |
| 1788064871 | 13.89° C | 99% | 1013.5 hPa | - | - | - | - |
| 1788064818 | 13.89° C | 99% | 1013.7 hPa | - | - | - | - |
| 1788064450 | 13.89° C | 99% | 1013.6 hPa | - | - | - | - |
| 1788064202 | 13.89° C | 99% | 1013.6 hPa | - | - | - | - |
| 1788063280 | 13.89° C | 1% | 1013.4 hPa | - | - | - | - |
| 1788062049 | 13.89° C | 23% | 1013.6 hPa | - | - | - | - |
| 1788061434 | 13.89° C | 99% | 1013.5 hPa | - | - | - | - |
* Rain since midnight (hover to see other rain measurements)
** Current wind speed in m/s (hover to see current wind gust speed)